Total_Precipitation_Accumulation
0.28 0.62 1.16 1.73 3.11 3.38 2.51 1.39 0.91 0.70 0.64 0.72 0.68 0.69 0.95 1.37 1.99 3.04 2.79 2.18 1.64 1.61 1.83 2.22 2.62 2.61 2.53 2.45 2.52 2.64 2.71 2.82 2.93 3.35 3.81 3.72 3.89 4.17 4.34 4.74 5.12 5.37 5.51 5.52 5.68 5.53 5.24 5.00 4.46
0.56 1.09 1.56 2.22 3.50 3.31 2.42 1.27 0.84 0.59 0.59 0.68 0.74 0.70 0.67 0.89 0.93 1.37 2.01 2.06 1.55 1.60 1.78 2.01 2.25 2.26 2.26 2.20 2.36 2.62 2.74 2.83 3.01 3.28 3.68 3.71 3.87 4.10 4.40 4.75 4.85 5.17 5.31 5.38 5.21 4.90 4.68 4.39 3.98
0.89 1.35 1.92 2.52 2.47 2.15 1.80 1.15 0.76 0.61 0.58 0.72 0.77 0.60 0.69 1.10 1.02 1.34 1.65 1.56 1.37 1.40 1.63 2.01 2.08 2.09 2.17 2.28 2.59 2.88 2.92 3.00 3.19 3.32 3.61 3.83 3.93 3.96 4.37 4.71 4.70 4.83 4.83 4.75 4.51 4.35 4.29 3.96 3.72
1.08 1.46 1.77 1.92 1.42 1.03 0.90 0.80 0.67 0.67 0.68 0.63 0.71 0.79 0.89 1.09 1.05 1.25 1.30 1.19 1.07 1.16 1.35 1.80 2.00 1.89 2.05 2.45 2.73 2.81 2.80 2.87 3.10 3.36 3.61 3.77 3.74 3.91 4.30 4.41 4.36 4.30 4.34 4.32 4.32 4.29 4.14 3.76 3.61
1.07 1.71 1.88 1.35 0.86 0.77 0.71 0.67 0.69 0.77 0.74 0.78 0.90 1.07 1.37 1.37 1.09 1.23 1.32 1.22 1.07 1.14 1.30 1.59 1.84 1.82 1.99 2.32 2.61 2.64 2.63 2.78 3.01 3.32 3.54 3.64 3.69 3.92 4.14 3.99 3.97 3.98 3.93 4.00 4.25 4.40 4.13 3.89 3.91
1.51 1.82 1.57 0.94 0.67 0.66 0.66 0.64 0.65 0.70 0.75 0.94 1.01 1.04 1.55 1.63 1.30 1.34 1.33 1.53 1.31 1.05 1.11 1.34 1.76 1.87 1.97 2.16 2.50 2.71 2.64 2.72 2.85 2.97 3.21 3.35 3.48 3.62 3.69 3.86 4.07 4.03 3.83 3.82 3.98 4.12 4.14 4.31 4.46
1.48 1.59 1.10 0.67 0.53 0.55 0.48 0.51 0.64 0.75 0.89 0.97 0.86 0.98 1.61 1.93 1.58 1.41 1.40 1.43 1.24 1.00 1.05 1.27 1.53 1.70 1.99 2.39 2.64 2.81 2.79 2.82 2.82 2.84 3.16 3.39 3.56 3.48 3.49 3.74 3.98 3.93 3.98 3.84 3.65 3.51 3.43 3.71 3.92
1.03 1.13 0.86 0.59 0.44 0.46 0.33 0.33 0.49 0.72 0.88 0.75 0.78 1.17 1.78 1.78 1.33 1.25 1.34 1.44 1.30 1.16 1.18 1.38 1.54 1.57 1.66 2.04 2.64 2.88 3.00 3.13 3.19 3.28 3.52 3.80 4.02 3.99 3.86 3.58 3.58 3.70 3.80 3.93 3.58 3.24 3.00 3.13 3.19
0.72 0.93 0.75 0.47 0.33 0.36 0.28 0.30 0.39 0.58 0.66 0.73 0.92 1.11 1.33 1.20 1.04 1.22 1.47 1.74 1.81 1.57 1.49 1.57 1.53 1.52 1.58 1.78 2.24 2.74 3.09 3.47 3.67 3.69 3.69 4.02 4.21 4.22 4.31 3.87 4.07 4.04 3.99 4.04 3.75 3.38 3.04 3.01 2.84
0.64 0.81 0.58 0.34 0.25 0.28 0.26 0.31 0.46 0.69 0.86 1.10 1.43 1.51 1.28 1.16 1.14 1.31 1.63 1.84 2.15 1.96 1.70 1.65 1.58 1.62 1.60 1.59 2.01 2.53 2.63 3.06 3.31 3.37 3.40 3.84 4.27 4.41 3.99 4.45 4.77 4.69 4.63 4.35 4.11 3.93 3.31 2.83 2.67
0.40 0.42 0.28 0.21 0.19 0.19 0.24 0.29 0.39 0.61 1.04 1.56 1.67 1.49 1.24 1.36 1.46 1.53 1.90 2.06 2.04 1.89 2.00 2.03 1.90 1.91 1.98 2.21 2.09 2.36 2.70 2.96 2.94 2.90 3.16 3.65 3.88 4.08 3.91 4.14 4.73 4.91 4.94 4.53 4.33 4.12 3.39 3.18 3.47
0.21 0.25 0.18 0.17 0.18 0.21 0.20 0.21 0.33 0.61 1.10 1.26 1.24 1.17 1.17 1.43 1.57 1.73 2.12 2.29 2.34 2.21 2.48 2.66 2.40 2.49 2.53 2.37 2.27 2.35 2.49 2.68 2.84 3.16 3.21 3.37 3.85 4.17 4.03 4.01 4.19 4.57 4.70 4.90 4.53 4.32 3.98 3.78 3.72
0.16 0.17 0.13 0.12 0.15 0.21 0.19 0.25 0.41 0.79 0.98 0.84 0.73 1.00 1.13 1.48 1.84 2.09 2.39 2.32 2.61 2.79 3.08 3.32 2.95 2.97 2.94 2.98 2.96 2.70 2.77 2.86 3.04 3.28 3.45 3.53 3.90 4.22 4.26 4.13 4.08 4.03 4.03 4.30 4.48 4.31 4.36 4.23 3.99
0.14 0.14 0.13 0.13 0.15 0.18 0.27 0.39 0.55 0.87 0.79 0.70 0.87 1.31 1.53 1.51 1.83 2.25 2.43 2.58 2.97 3.20 3.40 3.58 3.49 3.59 3.54 3.39 3.55 3.53 3.11 3.23 3.19 3.29 3.42 3.58 3.84 4.38 4.59 4.42 4.36 4.01 3.85 3.90 4.24 4.39 4.64 4.50 4.21
0.15 0.19 0.23 0.23 0.26 0.26 0.39 0.77 0.81 0.89 0.76 0.79 1.03 1.38 1.72 1.67 1.83 2.17 2.40 2.93 3.65 4.04 3.99 4.03 4.03 4.35 4.28 3.96 3.71 3.45 3.31 3.33 3.48 3.54 3.61 3.64 3.89 4.46 4.56 4.32 3.96 3.68 3.58 3.86 4.00 4.17 4.45 4.21 4.02
0.19 0.34 0.50 0.41 0.31 0.32 0.47 1.15 1.11 0.94 1.04 1.10 1.26 1.44 1.74 1.80 1.88 2.15 2.63 3.43 4.33 4.88 4.81 4.62 4.19 4.60 4.69 4.46 4.30 3.93 3.70 3.76 3.78 3.52 3.65 3.58 3.76 3.76 3.94 3.69 3.38 3.45 3.55 3.77 4.08 4.11 4.24 4.25 4.20
0.34 0.45 0.57 0.53 0.36 0.34 0.50 1.24 1.21 0.90 1.12 1.37 1.26 1.40 1.65 1.84 2.04 2.20 2.77 3.62 4.49 5.34 5.58 5.54 5.40 5.18 4.99 4.82 4.73 4.57 4.44 4.16 3.78 3.62 3.75 3.48 3.14 2.97 3.27 3.32 3.37 3.22 3.39 3.51 3.32 3.82 4.20 4.24 4.18
0.47 0.43 0.47 0.51 0.39 0.40 0.58 1.01 1.07 1.02 1.16 1.30 1.27 1.31 1.46 1.74 2.19 2.32 2.64 3.37 4.32 5.24 5.84 6.02 6.12 5.87 5.43 4.95 4.63 4.58 4.36 4.12 3.84 3.61 3.64 3.20 2.98 2.82 3.21 3.21 3.22 3.14 3.35 3.50 3.58 3.96 4.12 3.79 3.76
0.31 0.34 0.44 0.47 0.39 0.46 0.71 1.02 1.07 1.09 1.30 1.43 1.46 1.44 1.50 1.78 2.23 2.42 2.70 3.16 3.97 4.78 5.52 5.67 6.05 5.66 5.08 4.55 4.12 4.00 3.85 3.55 3.45 3.32 3.26 3.21 3.03 3.01 3.32 3.15 3.30 3.12 3.20 3.21 3.25 3.55 3.75 3.41 3.42
0.24 0.31 0.42 0.42 0.32 0.41 0.77 1.23 1.31 1.29 1.32 1.32 1.35 1.40 1.48 1.84 2.28 2.61 3.12 3.50 3.54 4.12 4.90 4.99 4.70 4.57 4.21 3.86 3.71 3.55 3.52 3.17 3.04 2.93 3.08 2.89 2.79 2.92 2.97 3.17 2.98 2.92 3.12 3.14 3.22 3.50 3.45 3.15 3.37
0.24 0.30 0.34 0.34 0.34 0.45 0.77 1.43 1.72 1.55 1.25 1.04 1.06 1.17 1.35 1.64 2.11 2.52 2.92 3.35 3.36 3.77 3.90 3.60 3.49 3.60 3.59 3.42 3.33 3.24 3.28 3.09 2.87 2.77 2.87 2.74 2.56 2.63 2.70 2.68 2.73 2.89 2.66 2.95 3.25 3.34 3.38 3.35 3.26
0.21 0.18 0.19 0.22 0.37 0.65 0.79 1.75 2.12 1.72 1.31 1.05 1.07 1.26 1.37 1.45 1.59 1.87 2.17 2.58 2.84 2.94 2.83 2.88 2.91 2.99 3.22 3.19 3.03 2.88 2.66 2.60 2.60 2.54 2.64 2.77 2.50 2.34 2.35 2.37 2.59 2.74 2.70 3.07 2.77 2.89 3.22 3.48 3.24
0.15 0.13 0.17 0.26 0.39 0.69 0.92 1.43 2.06 1.85 1.67 1.40 1.27 1.34 1.25 1.19 1.30 1.49 1.48 1.66 1.96 2.22 2.30 2.35 2.74 2.88 2.89 2.89 2.90 2.97 2.69 2.56 2.56 2.72 2.95 2.92 2.57 2.20 2.04 2.22 2.50 2.66 2.72 2.82 2.77 2.90 2.91 2.99 3.00
0.14 0.18 0.32 0.54 0.73 1.16 1.16 1.30 1.94 1.71 1.45 1.42 1.25 1.11 1.06 0.99 1.05 1.27 1.30 1.32 1.44 1.58 1.72 1.90 2.29 2.56 2.61 2.55 2.55 2.61 2.66 2.70 2.55 2.59 2.71 2.65 2.50 2.32 2.12 2.17 2.48 2.59 2.66 2.73 2.79 2.79 2.69 2.77 2.87
0.18 0.32 0.71 1.23 1.60 1.68 1.13 1.13 1.43 1.22 1.20 1.29 1.04 0.80 0.78 0.86 0.87 1.08 1.09 1.13 1.26 1.28 1.35 1.61 1.94 2.17 2.22 2.23 2.30 2.39 2.62 2.62 2.45 2.30 2.41 2.44 2.30 2.24 2.24 2.20 2.62 2.79 2.78 2.71 2.83 2.82 2.73 2.83 2.90
0.19 0.25 0.51 0.86 1.10 1.26 1.21 1.59 1.55 1.07 1.01 0.89 0.73 0.61 0.61 0.83 0.85 0.88 0.83 0.85 1.05 1.16 1.23 1.40 1.58 1.76 1.88 2.06 2.25 2.27 2.45 2.30 2.23 2.47 2.31 2.19 2.00 2.09 2.36 2.52 2.62 2.68 2.72 2.63 2.94 2.73 2.72 2.83 2.85
0.15 0.16 0.21 0.35 0.49 0.88 1.32 1.72 1.51 1.03 0.95 0.78 0.63 0.59 0.69 0.81 0.80 0.84 0.79 0.75 0.81 0.91 1.12 1.41 1.59 1.65 1.71 1.85 2.07 2.11 2.11 2.16 2.31 2.54 2.48 2.26 2.18 2.09 2.36 2.57 2.73 2.68 2.67 2.81 3.06 2.94 2.94 3.06 2.93
0.13 0.16 0.22 0.33 0.54 0.83 1.20 1.60 1.79 1.47 1.07 0.81 0.72 0.79 0.99 1.01 0.89 0.93 0.83 0.80 0.80 0.81 0.97 1.12 1.30 1.55 1.78 1.79 1.78 1.82 2.07 2.15 2.29 2.42 2.33 2.31 2.29 2.33 2.51 2.57 2.58 2.51 2.49 2.68 3.08 3.03 3.04 3.20 3.13
0.14 0.16 0.20 0.27 0.35 0.58 1.04 1.30 1.23 1.19 0.95 0.81 0.82 1.03 0.98 0.90 0.92 0.94 0.77 0.77 0.78 0.85 0.91 1.07 1.26 1.53 1.74 1.69 1.74 1.94 2.12 2.19 2.28 2.46 2.41 2.36 2.39 2.49 2.54 2.55 2.54 2.45 2.33 2.47 2.71 2.79 3.02 3.10 3.14
0.15 0.17 0.21 0.30 0.30 0.31 0.60 0.95 0.84 0.92 0.90 0.97 1.02 1.02 1.04 1.00 1.02 1.07 0.92 0.98 1.03 1.12 1.13 1.19 1.28 1.48 1.60 1.61 1.74 1.94 2.08 2.14 2.23 2.29 2.40 2.46 2.47 2.58 2.62 2.61 2.56 2.34 2.31 2.44 2.54 2.68 2.88 2.98 3.08